Regional Weather Roundup
Issued by NWS Kansas City/Pleasant Hill, MO

Home | Current Version | Previous Version | Graphics & Text | Print | Product List | Glossary Off
Versions: 1 2 3 4 5 6 7 8 9 10 11 12 13 14 15 16 17 18 19 20 21 22 23 24 25 26 27 28

000
ASUS43 KEAX 172310
RWREAX

WEATHER ROUNDUP FOR EASTERN KANSAS AND NORTHWEST MISSOURI
NATIONAL WEATHER SERVICE KANSAS CITY/PLEASANT HILL MO
600 PM CDT TUE OCT 17 2017

KSZ040-057-103>105-MOZ028-029-037-043-180000-
...KANSAS CITY METROPOLITAN AREA...

CITY           SKY/WX    TMP DP  RH WIND       PRES   REMARKS
K.C. INTL      PTCLDY    66  48  52 S10       30.07F
K.C. DOWNTOWN  CLEAR     71  48  43 S9G18     30.07F
LEES SUMMIT    CLEAR     68  46  45 S13       30.10F
OLATHE - IXD   CLEAR     67  48  50 S9        30.09F
OLATHE - OJC   CLEAR     67  47  48 S8        30.09F
LAWRENCE       CLEAR     70  47  43 S14       30.06F

$$

MOZ001>008-011>017-020>025-030>033-038>040-044>046-053-054-180000-
...NORTHERN AND CENTRAL MISSOURI...

CITY           SKY/WX    TMP DP  RH WIND       PRES   REMARKS
ST. JOSEPH     CLEAR     71  47  42 S10       30.05S
MOSBY          CLEAR     68  45  42 S6        30.08S
WARRENSBURG    CLEAR     64  45  48 S7        30.11S
WHITEMAN AFB   CLEAR     65  47  51 S9        30.08F
CLINTON        CLEAR     68  45  42 S7        30.13F HAZE
SEDALIA        CLEAR     66  47  50 S5        30.14F
WARSAW         NOT AVBL
CHILLICOTHE      N/A     68  46  45 S9        30.09F
KIRKSVILLE     CLEAR     66  45  46 S8        30.11F

$$

MOZ041-047>049-056>058-063>065-088>090-097-180000-
...EASTERN AND SOUTHERN MISSOURI...

CITY           SKY/WX    TMP DP  RH WIND       PRES   REMARKS
ST. LOUIS INTL PTCLDY    67  39  35 S7        30.18F
SPIRIT OF STL  PTCLDY    66  41  40 S3        30.17F
COLUMBIA       CLEAR     65  47  52 S7        30.15F
JEFFERSON CITY CLEAR     68  42  38 S6        30.15S
ROLLA          CLEAR     63  42  46 S9        30.18F
OSAGE BEACH    CLEAR     67  44  43 MISG      30.17S
SPRINGFIELD    CLEAR     68  41  37 S8        30.16F
BRANSON        CLEAR     68  36  30 CALM      30.19F
JOPLIN         CLEAR     68  45  43 S10       30.15F
WEST PLAINS    CLEAR     66  34  30 SE6       30.21F

$$

IAZ060-094-KSZ022-034>040-054-083-096-NEZ052-066-093-180000-
...KANSAS...SOUTHEAST NEBRASKA AND IOWA...

CITY           SKY/WX    TMP DP  RH WIND       PRES   REMARKS
TOPEKA         CLEAR     72  47  40 S10       30.04F
MANHATTAN      CLEAR     73  48  41 SW12      30.02F
EMPORIA        CLEAR     70  44  39 S16       30.06F
CHANUTE        LGT RAIN  68  47  46 S10       30.12S
WICHITA        CLEAR     71  47  42 S14       30.05F
OMAHA          PTCLDY    71  46  40 S9        30.00F
LINCOLN        CLEAR     67  49  52 S7        30.00F
FALLS CITY     CLEAR     72  46  39 S7        30.01F
LAMONI         CLEAR     67  46  47 S9        30.05S
DES MOINES     CLEAR     69  44  40 S12       30.03R

$$





USA.gov is the U.S. government's official web portal to all federal, state and local government web resources and services.